星链-4641 (STARLINK-4641 )

导读 | 星芒AI

STARLINK-4641 是 SpaceX 星链计划中的一颗低轨通信卫星,属于星链第四批发射的卫星群之一。该卫星设计用于提供全球高速互联网服务,主要面向偏远和网络覆盖不足的地区。它运行在约 550 公里的近地轨道,采用先进的相控阵天线和激光通信技术,以提高数据传输效率和网络稳定性。作为星链星座的一部分,STARLINK-4641 有助于构建一个覆盖全球的宽带网络系统,推动全球互联网接入的普及。

基本信息
目录编号:
53730
目录名称:
STARLINK-4641
国际标识:
2022-107AG
轨道中心:
EARTH
卫星名称:
星链-4641
卫星全名:
星链-4641 (STARLINK-4641 )
卫星状态:
在轨 (已飞行1157 天)
发射日期:
2022-09-05 UTC
国别 :
美国 (US)
星等 :
--
轨道信息
数据来源 国际轨道数据
星历时间: 2025-11-05T03:55:58+0800
5小时前
查看轨道信息
半长轴: 6917.893km
偏心率: 0.0001156
轨道倾角: 53.215°
近地点辐角 74.689°
升交点赤经 94.667°
平近点角 285.423°
近地点: 538.958km
远地点: 540.558km
周期: 95.438分钟
每日圈数: 15.088362
详细信息
固有亮度:
5
最大亮度:
2.5
卫星平台:
Starlink v1.5
覆盖范围:
全球
运营商:
太空探索技术公司
运营商所在国:
美国
制造商(研发单位):
太空探索技术公司
制造商所在国:
美国
使用方式:
暂无
卫星简介
星链(Starlink)计划是由太空探索技术公司(SpaceX)提出的一个巨型低轨卫星互联网星座项目,计划在2019年至2024年间在太空搭建由约1.2万颗卫星组成的“星链”网络,其中1584颗将部署在地球上空550千米处的近地轨道,并从2020年开始工作。该卫星仍在工作。
2D轨道图
3D轨道图
轨道高度分析图
轨道倾角分析图
轨道综合分析图
查看轨道综合分析图